Location: *
(47.7167°N, 1.7333°W)
Time: 03:48:52
(UTC+00:00)

GEOS 3 Rocket - Pass Details

Date: 09 April 2020
Orbit: 774 x 845 km, 115.0° (Epoch: 25 May)

Event Time Altitude Azimuth Distance (km) Brightness Sun altitude
Exits shadow 19:27:23 - 147° (SSE) 3,108 6.2 -7.0°
Reaches altitude 10° 19:29:15 10° 149° (SSE) 2,356 5.6 -7.3°
Maximum altitude 19:34:20 68° 232° (SW) 866 3.9 -8.1°
Drops below altitude 10° 19:39:34 10° 316° (NW) 2,415 7.3 -9.0°
Sets 19:41:55 0° 319° (NW) 3,362 8.1 -9.3°
